Location: Dodgeville
(42.9600°N, 90.1300°W)
Time: 17:02:45
(UTC-05:00)

Uosat F - Visible Passes

Search period start: 31 March 2015 00:00
Search period end: 10 April 2015 00:00
Orbit: 751 x 761 km, 98.7° (Epoch: 30 March)

Date Brightness Start Highest point End Pass type
(mag) Time Alt. Az. Time Alt. Az. Time Alt. Az.
31 Mar 12.4 05:26:11 10° NNE 05:30:56 41° E 05:35:39 10° S visible
01 Apr 13.8 04:47:58 10° NE 04:51:15 18° E 04:54:43 10° SE visible
02 Apr 11.6 05:46:14 10° NNE 05:51:14 64° ESE 05:56:12 10° S visible
03 Apr 13.2 05:07:30 10° NE 05:11:42 27° E 05:16:00 10° SSE visible
04 Apr 14.1 04:30:26 10° ENE 04:31:53 11° E 04:33:40 10° ESE visible
04 Apr 11.1 06:06:24 10° NNE 06:11:28 83° WNW 06:16:28 10° SSW visible
05 Apr 12.4 05:27:20 10° NNE 05:32:04 42° E 05:36:49 10° S visible
06 Apr 13.8 04:49:06 10° NE 04:52:26 18° E 04:55:54 10° SE visible
07 Apr 11.6 05:47:22 10° NNE 05:52:22 65° ESE 05:57:20 10° S visible
08 Apr 13.2 05:08:38 10° NE 05:12:52 28° E 05:17:09 10° SSE visible
09 Apr 14.1 04:31:31 10° ENE 04:33:02 12° E 04:34:52 10° ESE visible
